Location: Staunton
(38.1490°N, 79.0720°W)
Time: 09:17:01
(UTC-04:00)

ISS - Pass Details

Date: 16 October 2017
Orbit: 401 x 408 km, 51.6° (Epoch: 18 October)

Event Time Altitude Azimuth Distance (km) Brightness Sun altitude
Rises 19:17:55 0° 306° (NW) 2,321 0.9 -8.9°
Reaches altitude 10° 19:20:01 10° 302° (WNW) 1,459 -0.1 -9.3°
Maximum altitude 19:23:14 57° 223° (SW) 479 -3.2 -9.9°
Drops below altitude 10° 19:26:26 10° 143° (SE) 1,454 -1.3 -10.5°
Enters shadow 19:27:33 - 141° (SE) 1,904 -0.8 -10.7°
